Regional Weather Roundup
Issued by NWS

Home | Current Version | Previous Version | Text Only | Print | Product List | Glossary On
Versions: 1 2 3 4 5 6 7 8 9 10 11 12 13 14 15 16 17 18 19 20 21 22 23 24 25 26 27 28 29 30 31 32 33 34 35 36 37 38 39 40 41 42 43 44 45 46 47 48 49 50
000
ASUS42 KTBW 022116
RWRFL
FLORIDA REGIONAL WEATHER ROUNDUP
NATIONAL WEATHER SERVICE TAMPA BAY RUSKIN FL
500 PM EDT THU JUL 02 2015

NOTE: "FAIR" INDICATES FEW OR NO CLOUDS BELOW 12,000 FEET WITH NO
SIGNIFICANT WEATHER AND/OR OBSTRUCTIONS TO VISIBILITY.


FLZ001>010-012>015-112-114-115-022200-
PANHANDLE FLORIDA

CITY           SKY/WX    TMP DP  RH WIND       PRES   REMARKS
PENSACOLA      PTSUNNY   87  71  58 SW10      30.04F
PENSACOLA NAS  CLOUDY    87  70  56 VRB6      30.04F
MILTON NAS     PTSUNNY   87  73  62 W9        30.05
CRESTVIEW      CLOUDY    84  75  74 S7        30.06F
DUKE FIELD     PTSUNNY   83  73  71 S8        30.05F
VALPARAISO     CLOUDY    84  71  65 CALM      30.05F
MARY ESTHER    CLOUDY    84  70  63 SW5       30.04
TRI COUNTY     FAIR      75  74  96 S5        30.07F
PANAMA CITY    FAIR      86  71  60 NW5       30.06S
TYNDALL AFB    CLOUDY    85  71  62 W7        30.07S
APALACHICOLA   CLOUDY    83  75  77 CALM      30.08F

STATION/POSITION SKY/WX   TEMP    WIND        PRES    WAVE   SWELL
                          AIR SEA DIR/SP/G            HT/PER HT/PER
                          (F)     (DEG/KT/KT) (MB)    (FT/S) (FT/S)
30.1N   87.6W              83 82  250/ 10/ 12 1017.2F   2/ 4
29.2N   88.2W              85 85  220/  6/  8 1018.5F   1/ 6   2/ 6
28.8N   86.0W              84 85  250/  2/  2 1019.0F   3/ 5   3/ 5
PANAMA CITY BEAC           82 81  250/  6/  8 1018.0F
CAPE SAN BLAS    NOT AVBL
TOWER C                    79     350/  3/  4 1018.9F
28.5N   84.5W              85 87  240/  4/  4 1019.2R   2/ 8   2/ 8

$$
FLZ011-016>038-118-127-128-134-139-239-022200-
NORTH FLORIDA

CITY           SKY/WX    TMP DP  RH WIND       PRES   REMARKS
MARIANNA       LGT RAIN  74  73  97 SE3       30.07F
TALLAHASSEE    CLOUDY    77  71  82 N8        30.09F
PERRY            N/A     75  74  98 W8        30.10S
CROSS CITY       N/A     87  71  58 NW10      30.09R
LAKE CITY      LGT RAIN  72  70  94 SW5       30.09F
GAINESVILLE    CLOUDY    85  71  63 S8        30.07F
MAYPORT NAS    PTSUNNY   84  70  62 S15       30.03F
JACKSONVILLE   PTSUNNY   90  70  51 SW15      30.01F THUNDER HX  95
JAX NAS        PTSUNNY   85  70  60 S16       30.06S
JAX CRAIG      PTSUNNY   84  69  60 S13       30.04F
JAX CECIL      SUNNY     86  73  66 SW12      30.06R
FERNANDINA BEA FAIR      90  70  51 S15       30.00F HX  95
ST AUGUSTINE   LGT RAIN  74  71  91 S7        30.07F

STATION/POSITION SKY/WX   TEMP    WIND        PRES    WAVE   SWELL
                          AIR SEA DIR/SP/G            HT/PER HT/PER
                          (F)     (DEG/KT/KT) (MB)    (FT/S) (FT/S)
SHELL POINT                74     310/  4/  5   N/A
KEATON BEACH               78     320/  6/ 11 1019.1F
CEDAR KEY                  86     290/  7/ 10 1019.1F
FERNANDINA                 86 83  190/ 14/ 19 1015.9F
30.7N   81.3W                 79                N/A     2/ 9
MAYPORT                    81 80  200/  8/ 12 1017.7F
31.4N   80.9W              81 80  180/ 19/ 23 1015.4F   3/ 4   2/ 8
ST AUGUSTINE               72 74  180/ 11/ 11 1018.9F

$$
FLZ040-043>046-052-053-057-058-063-144-022200-
INTERIOR CENTRAL FLORIDA

CITY           SKY/WX    TMP DP  RH WIND       PRES   REMARKS
OCALA          TSTM      81  70  69 E7G21     30.11R
THE VILLAGES     N/A    N/A N/A N/A CALM      30.00S
LEESBURG       LGT RAIN  77  72  84 NW5       30.10S
SANFORD        CLOUDY    76  69  79 SE3       30.08F
ORLANDO EXEC   CLOUDY    77  74  90 CALM      30.09F
ORLANDO INTL   TSTM      79  73  83 NW5       30.10F
KISSIMMEE      PTSUNNY   81  73  78 CALM      30.10S
WINTER HAVEN   LGT RAIN  78  73  84 S7        30.12R
LAKELAND       PTSUNNY   79  73  83 CALM      30.11R
OKEECHOBEE     SUNNY     90  68  48 SE6       30.07S

$$
FLZ041-047-054-059-064-141-147-022200-
EAST CENTRAL FLORIDA

CITY           SKY/WX    TMP DP  RH WIND       PRES   REMARKS
ORMOND BEACH   TSTM      73  70  88 W6        30.10F
DAYTONA BEACH  CLOUDY    75  70  84 W5        30.11R
DELAND           N/A     75  72  88 W3        30.10S
NEW SMYRNA BEA PTSUNNY   75  70  83 E8        30.12R THUNDER
JFK SPACE CTR  CLOUDY    78  69  74 N9G30     30.11R THUNDER
TITUSVILLE     MOSUNNY   81  66  61 SE14      30.09R
CAPE CANAVERAL SUNNY     88  75  65 SE14      30.06R HX  98
PATRICK AFB    SUNNY     86  77  73 SE13      30.06S HX  97
MELBOURNE      MOSUNNY   89  75  63 SE12      30.06S HX  99
VERO BEACH     PTSUNNY   87  75  67 E10       30.07F HX  96
FT PIERCE      MOSUNNY   90  74  59 SE14      30.07R HX  99
STUART         MOSUNNY   84  73  70 E12       30.09S

STATION/POSITION SKY/WX   TEMP    WIND        PRES    WAVE   SWELL
                          AIR SEA DIR/SP/G            HT/PER HT/PER
                          (F)     (DEG/KT/KT) (MB)    (FT/S) (FT/S)
28.5N   80.2W              82 81  160/  8/ 10 1018.7F
28.9N   78.5W              84 85  200/  6/  8 1019.3F
TRIDENT PIER               85 81  140/  9/ 12 1018.6F
27.5N   80.2W                 80                N/A     1/ 8

$$
FLZ050-056-061-142-242-148-248-149-249-151-251-155-255-
160-260-022200-
WEST CENTRAL FLORIDA

CITY           SKY/WX    TMP DP  RH WIND       PRES   REMARKS
CRYSTAL RIVER  FAIR      88  70  55 W10G17    30.09S
INVERNESS      FAIR     N/A N/A N/A S3        30.09S
BROOKSVILLE    CLOUDY    81  71  71 CALM      30.10F
ZEPHYRHILLS    FAIR      81  70  69 CALM      30.11R
CLEARWATER     CLOUDY    87  74  64 NW6       30.08S HX  95
TAMPA INTL     CLOUDY    86  69  56 NW8       30.09S
TAMPA EXEC     CLOUDY   N/A N/A N/A CALM      30.10R
PLANT CITY     CLOUDY    81  75  83 CALM      30.11F
MACDILL AFB    CLOUDY    86  75  68 NW5       30.08S HX  95
PETER O KNIGHT CLOUDY    88  72  58 W3        30.09S
ST PETERSBURG  CLOUDY    87  71  58 CALM      30.06F
SARASOTA       PTSUNNY   88  71  57 N7        30.06F THUNDER
VENICE         FAIR      90  72  55 W12       30.07F HX  96

STATION/POSITION SKY/WX   TEMP    WIND        PRES    WAVE   SWELL
                          AIR SEA DIR/SP/G            HT/PER HT/PER
                          (F)     (DEG/KT/KT) (MB)    (FT/S) (FT/S)
CEDAR KEY                  86     290/  7/ 10 1019.1F
28.5N   84.5W              85 87  240/  4/  4 1019.2R   2/ 8   2/ 8
27.3N   84.2W                 89                N/A     1/ 7
CLEARWATER BEACH           84 88  250/  6/  8 1018.9F
MIDDLE TAMPA BAY           85      10/  2/  4 1019.0F
VENICE                     87 90  250/  9/ 10 1017.9F

$$
FLZ066-069-070-075>078-162-262-165-265-022200-
SOUTHWEST FLORIDA AND KEYS

CITY           SKY/WX    TMP DP  RH WIND       PRES   REMARKS
PUNTA GORDA    MOSUNNY   91  71  51 VRB7      30.06F HX  97
FT MYERS       MOSUNNY   93  68  43 SW6       30.03F HX  97
SOUTHWEST INTL MOSUNNY   93  67  42 SW3       30.04F THUNDER HX  96
NAPLES         TSTM      77  72  84 E6        30.07R
MARCO ISLAND   CLOUDY    90  73  58 N9        30.06R HX  98
MARATHON       PTSUNNY   90  76  63 E9        30.04F HX 101
KEY WEST NAS   MOSUNNY   89  74  60 SE15      30.03F HX  98
KEY WEST INTL  SUNNY     90  75  61 E12       30.04F HX 100

STATION/POSITION SKY/WX   TEMP    WIND        PRES    WAVE   SWELL
                          AIR SEA DIR/SP/G            HT/PER HT/PER
                          (F)     (DEG/KT/KT) (MB)    (FT/S) (FT/S)
VENICE                     87 90  250/  9/ 10 1017.9F
NAPLES                        90              1018.1F
26.0N   85.6W              85 86  100/  6/  8 1017.9F   3/ 6   2/ 6
DRY TORTUGAS               85     100/  5/  6 1017.4F
NW FL BAY                  87     130/ 10/ 14 1017.9
SAND KEY                   85     110/ 10/ 12 1017.4S
SOMBRERO KEY               86     110/ 14/ 15 1018.0F
LONG KEY                   86 89  110/ 12/ 13 1018.2F
MOLASSES REEF              84 86  110/ 12/ 13 1017.7F

$$
FLZ067-068-071>074-168-172>174-022200-
SOUTHEAST FLORIDA

CITY           SKY/WX    TMP DP  RH WIND       PRES   REMARKS
W PALM BEACH   MOSUNNY   88  73  61 SE14      30.09R HX  95
FT LAUDER-EXEC MOSUNNY   90  71  53 E15       30.06F HX  96
FT LAUDERDALE  MOSUNNY   88  73  61 SE15      30.05F HX  95
POMPANO BEACH  MOSUNNY   89  72  56 SE12      30.06F HX  96
PEMBROKE PINES SUNNY     91  69  48 SE14      30.06F HX  96
OPA LOCKA      SUNNY     90  71  53 SE13      30.06F HX  96
MIAMI          MOSUNNY   89  71  55 SE12      30.06F HX  95
WEST KENDALL   SUNNY     90  73  57 SE13      30.05F HX  98
HOMESTEAD      SUNNY     88  74  63 E15       30.05F HX  97

STATION/POSITION SKY/WX   TEMP    WIND        PRES    WAVE   SWELL
                          AIR SEA DIR/SP/G            HT/PER HT/PER
                          (F)     (DEG/KT/KT) (MB)    (FT/S) (FT/S)
PORT EVERGLADES            88     110/  5/ 10 1018.5F
VIRGINIA KEY               85 89  130/  8/ 11 1018.3F
LAKE WORTH                 84 86  130/ 10/ 11 1018.2F
SETTLEMENT POINT           85     110/  6/  8 1019.6F

$$




USA.gov is the U.S. government's official web portal to all federal, state and local government web resources and services.